Вернуться в каталог

SL-12 DEB

LostHEO
NORAD 38680·DEBRIS·🇷🇺 Russia

Запущен Apr 8, 1996 с Baikonur Cosmodrome

Loading…

Ближайшие Пролёты (ближайшие 24 часа)

TLE

УстаревшееSource: Space-Track

Эпоха: Jul 27, 2012, 05:43 UTC

1 38680U 96021E   12209.23821333 -.00000082  00000-0  10000-3 0  9997
2 38680   6.1400 194.1478 3657863 351.6711   3.4595  1.63886107 24512

Отслеживайте SL-12 DEB в реальном времени с AllMySat

Download on the App Store